Time,TemperatureF,DewpointF,PressureIn,WindDirection,WindDirectionDegrees,WindSpeedMPH,WindSpeedGustMPH,Humidity,HourlyPrecipIn,Conditions,Clouds,dailyrainin,SoftwareType,DateUTC
2013-08-28 08:10:00,75.7,69.9,29.59,WNW,292,2.5,2.5,82,0.00,,---,0.00,VWS V14.01,2013-08-28 13:10:00,
2013-08-28 08:15:00,76.1,69.8,29.59,WSW,248,2.5,2.9,81,0.00,,---,0.00,VWS V14.01,2013-08-28 13:15:00,
2013-08-28 08:20:00,76.1,69.8,29.59,West,270,0.0,2.9,81,0.00,,---,0.00,VWS V14.01,2013-08-28 13:20:00,
2013-08-28 08:25:00,76.6,70.0,29.59,WSW,248,1.1,2.2,80,0.00,,---,0.00,VWS V14.01,2013-08-28 13:25:00,
2013-08-28 08:30:00,76.8,69.8,29.59,NW,315,3.4,5.6,79,0.00,,---,0.00,VWS V14.01,2013-08-28 13:30:00,
2013-08-28 08:35:00,77.0,70.0,29.59,West,270,1.3,2.7,79,0.00,,---,0.00,VWS V14.01,2013-08-28 13:35:00,
2013-08-28 08:40:00,77.5,70.1,29.59,WNW,292,0.0,0.0,78,0.00,,---,0.00,VWS V14.01,2013-08-28 13:40:00,
2013-08-28 08:45:00,77.9,70.1,29.59,WNW,292,0.0,0.0,77,0.00,,---,0.00,VWS V14.01,2013-08-28 13:45:00,
2013-08-28 08:50:00,78.4,70.2,29.59,NW,315,4.0,4.0,76,0.00,,---,0.00,VWS V14.01,2013-08-28 13:50:00,
2013-08-28 08:55:00,79.2,70.2,29.59,NNW,338,2.5,3.1,74,0.00,,---,0.00,VWS V14.01,2013-08-28 13:55:00,
2013-08-28 09:00:00,79.5,69.7,29.59,NNE,22,0.9,3.6,72,0.00,,---,0.00,VWS V14.01,2013-08-28 14:00:00,
2013-08-28 09:05:00,79.7,69.9,29.59,West,270,0.9,2.7,72,0.00,,---,0.00,VWS V14.01,2013-08-28 14:05:00,
2013-08-28 09:10:00,80.1,69.4,29.59,WNW,292,3.1,3.8,70,0.00,,---,0.00,VWS V14.01,2013-08-28 14:10:00,
2013-08-28 09:15:00,80.1,69.0,29.59,NNW,338,6.3,6.3,69,0.00,,---,0.00,VWS V14.01,2013-08-28 14:15:00,
2013-08-28 09:20:00,80.2,68.7,29.59,West,270,0.0,1.6,68,0.00,,---,0.00,VWS V14.01,2013-08-28 14:20:00,
2013-08-28 09:25:00,80.4,69.3,29.59,ESE,112,3.6,4.7,69,0.00,,---,0.00,VWS V14.01,2013-08-28 14:25:00,
2013-08-28 09:30:00,80.6,69.1,29.59,West,270,0.0,2.7,68,0.00,,---,0.00,VWS V14.01,2013-08-28 14:30:00,
2013-08-28 09:34:00,80.8,69.2,29.59,WSW,248,1.6,4.0,68,0.00,,---,0.00,VWS V14.01,2013-08-28 14:34:00,
2013-08-28 09:39:00,81.0,69.4,29.59,West,270,2.9,2.9,68,0.00,,---,0.00,VWS V14.01,2013-08-28 14:39:00,
2013-08-28 09:44:00,81.1,69.6,29.59,WSW,248,2.0,4.0,68,0.00,,---,0.00,VWS V14.01,2013-08-28 14:44:00,
2013-08-28 09:49:00,81.5,69.5,29.59,NW,315,0.0,1.1,67,0.00,,---,0.00,VWS V14.01,2013-08-28 14:49:00,
2013-08-28 09:54:00,81.7,69.7,29.59,NNE,22,3.4,4.3,67,0.00,,---,0.00,VWS V14.01,2013-08-28 14:54:00,
2013-08-28 09:59:00,81.9,69.4,29.59,ENE,68,3.1,6.0,66,0.00,,---,0.00,VWS V14.01,2013-08-28 14:59:00,
2013-08-28 10:04:00,81.9,68.9,29.59,NW,315,3.1,3.1,65,0.00,,---,0.00,VWS V14.01,2013-08-28 15:04:00,
2013-08-28 10:09:00,82.2,69.3,29.59,NE,45,4.7,4.7,65,0.00,,---,0.00,VWS V14.01,2013-08-28 15:09:00,
2013-08-28 10:14:00,82.4,69.0,29.59,NW,315,3.1,3.8,64,0.00,,---,0.00,VWS V14.01,2013-08-28 15:14:00,
2013-08-28 10:19:00,82.6,69.6,29.59,NE,45,3.1,3.6,65,0.00,,---,0.00,VWS V14.01,2013-08-28 15:19:00,
2013-08-28 10:24:00,82.8,69.3,29.59,NE,45,4.3,4.3,64,0.00,,---,0.00,VWS V14.01,2013-08-28 15:24:00,
2013-08-28 10:29:00,82.9,69.1,29.59,NNW,338,3.1,3.1,63,0.00,,---,0.00,VWS V14.01,2013-08-28 15:29:00,
2013-08-28 10:34:00,83.3,69.9,29.59,NNE,22,2.7,3.6,64,0.00,,---,0.00,VWS V14.01,2013-08-28 15:34:00,
2013-08-28 10:39:00,83.5,69.6,29.59,WSW,248,4.3,6.0,63,0.00,,---,0.00,VWS V14.01,2013-08-28 15:39:00,
2013-08-28 10:44:00,83.8,69.9,29.59,North,0,3.4,3.6,63,0.00,,---,0.00,VWS V14.01,2013-08-28 15:44:00,
2013-08-28 10:49:00,83.8,69.4,29.59,NE,45,3.8,3.8,62,0.00,,---,0.00,VWS V14.01,2013-08-28 15:49:00,
2013-08-28 10:54:00,83.8,69.4,29.59,NE,45,4.3,4.3,62,0.00,,---,0.00,VWS V14.01,2013-08-28 15:54:00,
2013-08-28 10:59:00,83.8,69.4,29.59,NW,315,2.0,4.3,62,0.00,,---,0.00,VWS V14.01,2013-08-28 15:59:00,
2013-08-28 11:04:00,83.8,69.4,29.59,NW,315,2.0,2.9,62,0.00,,---,0.00,VWS V14.01,2013-08-28 16:04:00,
2013-08-28 11:09:00,83.8,69.4,29.59,WNW,292,2.2,2.2,62,0.00,,---,0.00,VWS V14.01,2013-08-28 16:09:00,
2013-08-28 11:14:00,85.6,70.2,29.59,West,270,2.9,2.9,60,0.00,,---,0.00,VWS V14.01,2013-08-28 16:14:00,
2013-08-28 11:19:00,85.6,70.2,29.59,North,0,3.4,3.4,60,0.00,,---,0.00,VWS V14.01,2013-08-28 16:19:00,
2013-08-28 11:24:00,85.6,70.2,29.59,NNE,22,3.8,4.5,60,0.00,,---,0.00,VWS V14.01,2013-08-28 16:24:00,
2013-08-28 11:29:00,85.6,70.2,29.59,NNE,22,3.6,3.6,60,0.00,,---,0.00,VWS V14.01,2013-08-28 16:29:00,
2013-08-28 11:34:00,85.6,70.2,29.59,NNE,22,2.2,3.1,60,0.00,,---,0.00,VWS V14.01,2013-08-28 16:34:00,
2013-08-28 11:39:00,85.6,70.2,29.59,NNW,338,2.9,2.9,60,0.00,,---,0.00,VWS V14.01,2013-08-28 16:39:00,
2013-08-28 11:44:00,85.6,70.2,29.59,NW,315,2.9,2.9,60,0.00,,---,0.00,VWS V14.01,2013-08-28 16:44:00,
2013-08-28 11:49:00,85.6,70.2,29.59,West,270,0.0,0.0,60,0.00,,---,0.00,VWS V14.01,2013-08-28 16:49:00,
2013-08-28 11:54:00,85.6,70.2,29.59,WNW,292,0.0,2.2,60,0.00,,---,0.00,VWS V14.01,2013-08-28 16:54:00,
2013-08-28 11:59:00,85.6,70.2,29.59,NW,315,1.6,2.0,60,0.00,,---,0.00,VWS V14.01,2013-08-28 16:59:00,
2013-08-28 12:04:00,85.6,70.2,29.59,West,270,4.3,4.3,60,0.00,,---,0.00,VWS V14.01,2013-08-28 17:04:00,
2013-08-28 12:09:00,85.6,70.2,29.59,West,270,2.9,4.0,60,0.00,,---,0.00,VWS V14.01,2013-08-28 17:09:00,
2013-08-28 12:14:00,85.6,70.2,29.59,North,0,1.1,3.6,60,0.00,,---,0.00,VWS V14.01,2013-08-28 17:14:00,
2013-08-28 12:19:00,85.6,70.2,29.59,North,0,1.1,1.1,60,0.00,,---,0.00,VWS V14.01,2013-08-28 17:19:00,
2013-08-28 12:24:00,89.8,69.3,29.59,West,270,1.3,2.0,51,0.00,,---,0.00,VWS V14.01,2013-08-28 17:24:00,
2013-08-28 12:29:00,89.8,69.3,29.59,WSW,248,2.5,4.0,51,0.00,,---,0.00,VWS V14.01,2013-08-28 17:29:00,
2013-08-28 12:34:00,90.1,69.0,29.59,SE,135,1.6,3.8,50,0.00,,---,0.00,VWS V14.01,2013-08-28 17:34:00,
2013-08-28 12:39:00,90.1,69.0,29.59,NNW,338,3.4,3.6,50,0.00,,---,0.00,VWS V14.01,2013-08-28 17:39:00,
2013-08-28 12:44:00,90.1,69.0,29.59,WSW,248,1.1,1.1,50,0.00,,---,0.00,VWS V14.01,2013-08-28 17:44:00,
2013-08-28 12:49:00,90.1,69.0,29.59,NE,45,2.7,2.7,50,0.00,,---,0.00,VWS V14.01,2013-08-28 17:49:00,
2013-08-28 12:54:00,90.1,69.0,29.59,ENE,68,3.4,3.6,50,0.00,,---,0.00,VWS V14.01,2013-08-28 17:54:00,
2013-08-28 12:59:00,90.1,69.0,29.59,ENE,68,2.7,2.9,50,0.00,,---,0.00,VWS V14.01,2013-08-28 17:59:00,
2013-08-28 13:04:00,90.1,69.0,29.59,NNE,22,3.8,4.0,50,0.00,,---,0.00,VWS V14.01,2013-08-28 18:04:00,
2013-08-28 13:09:00,90.1,69.0,29.59,ENE,68,2.9,3.1,50,0.00,,---,0.00,VWS V14.01,2013-08-28 18:09:00,
2013-08-28 13:14:00,90.1,69.0,29.59,WSW,248,3.8,3.8,50,0.00,,---,0.00,VWS V14.01,2013-08-28 18:14:00,
2013-08-28 13:19:00,90.1,69.0,29.59,WSW,248,2.0,3.6,50,0.00,,---,0.00,VWS V14.01,2013-08-28 18:19:00,
2013-08-28 13:24:00,90.1,69.0,29.59,NNE,22,2.9,2.9,50,0.00,,---,0.00,VWS V14.01,2013-08-28 18:24:00,
2013-08-28 13:29:00,90.1,69.0,29.59,NNE,22,1.6,4.0,50,0.00,,---,0.00,VWS V14.01,2013-08-28 18:29:00,
2013-08-28 13:34:00,90.1,69.0,29.59,NNE,22,2.7,2.7,50,0.00,,---,0.00,VWS V14.01,2013-08-28 18:34:00,
2013-08-28 13:39:00,90.1,69.0,29.59,NW,315,3.4,3.6,50,0.00,,---,0.00,VWS V14.01,2013-08-28 18:39:00,
2013-08-28 13:44:00,90.1,69.0,29.59,NW,315,4.0,4.0,50,0.00,,---,0.00,VWS V14.01,2013-08-28 18:44:00,
2013-08-28 13:49:00,90.1,69.0,29.59,NE,45,3.8,3.8,50,0.00,,---,0.00,VWS V14.01,2013-08-28 18:49:00,
2013-08-28 13:54:00,90.1,69.0,29.59,NE,45,4.7,4.7,50,0.00,,---,0.00,VWS V14.01,2013-08-28 18:54:00,
2013-08-28 13:59:00,90.1,69.0,29.62,NW,315,3.1,3.1,50,0.00,,---,0.00,VWS V14.01,2013-08-28 18:59:00,
2013-08-28 14:04:00,90.1,69.0,29.62,ENE,68,3.1,3.4,50,0.00,,---,0.00,VWS V14.01,2013-08-28 19:04:00,
2013-08-28 14:09:00,90.1,69.0,29.62,WSW,248,0.0,3.4,50,0.00,,---,0.00,VWS V14.01,2013-08-28 19:09:00,
2013-08-28 14:14:00,90.1,69.0,29.59,NE,45,2.5,3.1,50,0.00,,---,0.00,VWS V14.01,2013-08-28 19:14:00,
2013-08-28 14:19:00,90.1,69.0,29.59,WSW,248,1.6,1.6,50,0.00,,---,0.00,VWS V14.01,2013-08-28 19:19:00,
2013-08-28 14:24:00,90.1,69.0,29.59,WSW,248,0.0,4.3,50,0.00,,---,0.00,VWS V14.01,2013-08-28 19:24:00,
2013-08-28 14:29:00,90.1,69.0,29.59,West,270,3.4,3.4,50,0.00,,---,0.00,VWS V14.01,2013-08-28 19:29:00,
2013-08-28 14:34:00,90.1,69.0,29.59,WNW,292,4.0,4.0,50,0.00,,---,0.00,VWS V14.01,2013-08-28 19:34:00,
2013-08-28 14:39:00,90.1,69.0,29.59,NNW,338,1.6,4.7,50,0.00,,---,0.00,VWS V14.01,2013-08-28 19:39:00,
2013-08-28 14:44:00,90.1,69.0,29.59,NE,45,2.7,5.8,50,0.00,,---,0.00,VWS V14.01,2013-08-28 19:44:00,
2013-08-28 14:49:00,90.1,69.0,29.59,NNE,22,3.1,4.9,50,0.00,,---,0.00,VWS V14.01,2013-08-28 19:49:00,
2013-08-28 14:54:00,90.1,69.0,29.59,West,270,3.1,4.0,50,0.00,,---,0.00,VWS V14.01,2013-08-28 19:54:00,
2013-08-28 14:59:00,90.1,69.0,29.59,NW,315,1.6,1.6,50,0.00,,---,0.00,VWS V14.01,2013-08-28 19:59:00,
2013-08-28 15:04:00,90.1,69.0,29.59,NNW,338,7.4,7.4,50,0.00,,---,0.00,VWS V14.01,2013-08-28 20:04:00,
2013-08-28 15:09:00,90.1,69.0,29.59,WNW,292,2.0,2.9,50,0.00,,---,0.00,VWS V14.01,2013-08-28 20:09:00,
2013-08-28 15:14:00,90.1,69.0,29.59,West,270,2.0,3.6,50,0.00,,---,0.00,VWS V14.01,2013-08-28 20:14:00,
2013-08-28 15:19:00,90.1,69.0,29.59,NNW,338,3.1,3.1,50,0.00,,---,0.00,VWS V14.01,2013-08-28 20:19:00,
2013-08-28 15:24:00,90.1,69.0,29.59,NNW,338,3.1,3.1,50,0.00,,---,0.00,VWS V14.01,2013-08-28 20:24:00,
2013-08-28 15:29:00,90.1,69.0,29.56,NNW,338,3.6,3.6,50,0.00,,---,0.00,VWS V14.01,2013-08-28 20:29:00,
2013-08-28 15:34:00,90.1,69.0,29.56,ENE,68,1.3,5.4,50,0.00,,---,0.00,VWS V14.01,2013-08-28 20:34:00,
2013-08-28 15:39:00,90.1,69.0,29.56,NNW,338,4.0,6.5,50,0.00,,---,0.00,VWS V14.01,2013-08-28 20:39:00,
2013-08-28 15:43:00,90.1,69.0,29.59,WNW,292,1.3,4.7,50,0.00,,---,0.00,VWS V14.01,2013-08-28 20:43:00,
2013-08-28 15:48:00,90.1,69.0,29.59,SW,225,2.5,3.6,50,0.00,,---,0.00,VWS V14.01,2013-08-28 20:48:00,
2013-08-28 15:53:00,90.1,69.0,29.59,NE,45,2.5,3.8,50,0.00,,---,0.00,VWS V14.01,2013-08-28 20:53:00,
2013-08-28 15:58:00,90.1,69.0,29.59,WNW,292,2.7,6.3,50,0.00,,---,0.00,VWS V14.01,2013-08-28 20:58:00,
2013-08-28 16:03:00,90.1,69.0,29.59,West,270,6.3,6.3,50,0.00,,---,0.00,VWS V14.01,2013-08-28 21:03:00,
2013-08-28 16:08:00,90.1,69.0,29.59,WNW,292,4.9,4.9,50,0.00,,---,0.00,VWS V14.01,2013-08-28 21:08:00,
2013-08-28 16:13:00,90.1,69.0,29.59,West,270,2.0,2.0,50,0.00,,---,0.00,VWS V14.01,2013-08-28 21:13:00,
2013-08-28 16:18:00,90.1,69.0,29.59,NNW,338,4.9,4.9,50,0.00,,---,0.00,VWS V14.01,2013-08-28 21:18:00,
2013-08-28 16:23:00,90.1,69.0,29.59,NE,45,5.6,5.6,50,0.00,,---,0.00,VWS V14.01,2013-08-28 21:23:00,
2013-08-28 16:28:00,90.1,69.0,29.59,WNW,292,2.0,2.7,50,0.00,,---,0.00,VWS V14.01,2013-08-28 21:28:00,
2013-08-28 16:33:00,90.1,69.0,29.59,NNW,338,3.8,5.4,50,0.00,,---,0.00,VWS V14.01,2013-08-28 21:33:00,
2013-08-28 16:38:00,90.1,69.0,29.59,NNW,338,3.4,5.4,50,0.00,,---,0.00,VWS V14.01,2013-08-28 21:38:00,
2013-08-28 16:43:00,90.1,69.0,29.59,SW,225,0.0,3.6,50,0.00,,---,0.00,VWS V14.01,2013-08-28 21:43:00,
2013-08-28 16:48:00,90.1,69.0,29.59,NNE,22,3.1,3.1,50,0.00,,---,0.00,VWS V14.01,2013-08-28 21:48:00,
2013-08-28 16:53:00,90.1,69.0,29.59,NNE,22,2.9,2.9,50,0.00,,---,0.00,VWS V14.01,2013-08-28 21:53:00,
2013-08-28 16:58:00,90.1,69.0,29.56,NNE,22,3.8,3.8,50,0.00,,---,0.00,VWS V14.01,2013-08-28 21:58:00,
2013-08-28 17:03:00,90.1,69.0,29.56,SW,225,2.5,3.4,50,0.00,,---,0.00,VWS V14.01,2013-08-28 22:03:00,
2013-08-28 17:08:00,90.1,69.0,29.56,East,90,2.9,3.4,50,0.00,,---,0.00,VWS V14.01,2013-08-28 22:08:00,
2013-08-28 17:13:00,90.1,69.0,29.59,NNE,22,2.9,4.3,50,0.00,,---,0.00,VWS V14.01,2013-08-28 22:13:00,
2013-08-28 17:18:00,90.1,69.0,29.59,NE,45,3.1,3.1,50,0.00,,---,0.00,VWS V14.01,2013-08-28 22:18:00,
2013-08-28 17:23:00,90.1,69.0,29.59,NNE,22,3.1,3.6,50,0.00,,---,0.00,VWS V14.01,2013-08-28 22:23:00,
2013-08-28 17:28:00,90.1,69.0,29.56,NNE,22,3.4,3.8,50,0.00,,---,0.00,VWS V14.01,2013-08-28 22:28:00,
2013-08-28 17:33:00,90.1,69.0,29.56,NNW,338,2.9,2.9,50,0.00,,---,0.00,VWS V14.01,2013-08-28 22:33:00,
2013-08-28 17:38:00,90.1,69.0,29.56,NNE,22,3.6,3.6,50,0.00,,---,0.00,VWS V14.01,2013-08-28 22:38:00,
2013-08-28 17:43:00,90.1,69.0,29.56,NNE,22,1.6,2.7,50,0.00,,---,0.00,VWS V14.01,2013-08-28 22:43:00,
2013-08-28 17:48:00,90.1,69.0,29.56,West,270,1.3,1.6,50,0.00,,---,0.00,VWS V14.01,2013-08-28 22:48:00,
2013-08-28 17:53:00,90.1,69.0,29.56,West,270,2.5,2.5,50,0.00,,---,0.00,VWS V14.01,2013-08-28 22:53:00,
2013-08-28 17:58:00,90.1,69.0,29.56,NW,315,2.5,2.5,50,0.00,,---,0.00,VWS V14.01,2013-08-28 22:58:00,
2013-08-28 18:03:00,90.1,69.0,29.56,NNE,22,1.3,1.6,50,0.00,,---,0.00,VWS V14.01,2013-08-28 23:03:00,
2013-08-28 18:08:00,90.1,69.0,29.56,WNW,292,1.6,1.6,50,0.00,,---,0.00,VWS V14.01,2013-08-28 23:08:00,
2013-08-28 18:13:00,90.1,69.0,29.56,NNE,22,3.1,3.1,50,0.00,,---,0.00,VWS V14.01,2013-08-28 23:13:00,
2013-08-28 18:18:00,90.1,69.0,29.56,WSW,248,0.0,0.0,50,0.00,,---,0.00,VWS V14.01,2013-08-28 23:18:00,
2013-08-28 18:23:00,90.1,69.0,29.56,NW,315,0.0,0.0,50,0.00,,---,0.00,VWS V14.01,2013-08-28 23:23:00,
2013-08-28 18:28:00,90.1,69.0,29.56,WNW,292,0.0,0.9,50,0.00,,---,0.00,VWS V14.01,2013-08-28 23:28:00,
2013-08-28 18:33:00,90.1,69.0,29.56,NW,315,2.0,2.5,50,0.00,,---,0.00,VWS V14.01,2013-08-28 23:33:00,
2013-08-28 18:38:00,90.1,69.0,29.56,West,270,1.1,1.1,50,0.00,,---,0.00,VWS V14.01,2013-08-28 23:38:00,
2013-08-28 18:43:00,90.1,69.0,29.56,WNW,292,0.0,0.0,50,0.00,,---,0.00,VWS V14.01,2013-08-28 23:43:00,
2013-08-28 18:48:00,90.1,69.0,29.56,WNW,292,0.9,1.6,50,0.00,,---,0.00,VWS V14.01,2013-08-28 23:48:00,
2013-08-28 18:53:00,90.1,69.0,29.56,WNW,292,0.0,0.0,50,0.00,,---,0.00,VWS V14.01,2013-08-28 23:53:00,
2013-08-28 18:58:00,90.1,69.0,29.56,WNW,292,0.0,0.0,50,0.00,,---,0.00,VWS V14.01,2013-08-28 23:58:00,
2013-08-28 19:03:00,90.1,69.0,29.56,West,270,1.1,1.1,50,0.00,,---,0.00,VWS V14.01,2013-08-29 00:03:00,
2013-08-28 19:08:00,90.1,69.0,29.56,West,270,0.0,0.0,50,0.00,,---,0.00,VWS V14.01,2013-08-29 00:08:00,
2013-08-28 19:13:00,90.1,69.0,29.59,West,270,0.0,0.0,50,0.00,,---,0.00,VWS V14.01,2013-08-29 00:13:00,
2013-08-28 19:18:00,90.1,69.0,29.59,West,270,0.0,0.0,50,0.00,,---,0.00,VWS V14.01,2013-08-29 00:18:00,
2013-08-28 19:23:00,90.1,69.0,29.59,West,270,0.0,0.0,50,0.00,,---,0.00,VWS V14.01,2013-08-29 00:23:00,
2013-08-28 19:28:00,90.1,69.0,29.56,West,270,0.0,0.0,50,0.00,,---,0.00,VWS V14.01,2013-08-29 00:28:00,
2013-08-28 19:33:00,90.1,69.0,29.56,West,270,0.0,0.0,50,0.00,,---,0.00,VWS V14.01,2013-08-29 00:33:00,
2013-08-28 19:38:00,90.1,69.0,29.56,West,270,0.0,0.0,50,0.00,,---,0.00,VWS V14.01,2013-08-29 00:38:00,
2013-08-28 19:43:00,90.1,69.0,29.56,West,270,0.0,0.0,50,0.00,,---,0.00,VWS V14.01,2013-08-29 00:43:00,
2013-08-28 19:48:00,90.1,69.0,29.56,West,270,0.0,0.0,50,0.00,,---,0.00,VWS V14.01,2013-08-29 00:48:00,
2013-08-28 19:53:00,90.1,69.0,29.56,West,270,0.0,0.0,50,0.00,,---,0.00,VWS V14.01,2013-08-29 00:53:00,
2013-08-28 19:58:00,90.1,69.0,29.56,West,270,0.0,0.0,50,0.00,,---,0.00,VWS V14.01,2013-08-29 00:58:00,
2013-08-28 20:03:00,90.1,69.0,29.56,West,270,0.0,0.0,50,0.00,,---,0.00,VWS V14.01,2013-08-29 01:03:00,
2013-08-28 20:08:00,90.1,69.0,29.56,West,270,0.0,0.0,50,0.00,,---,0.00,VWS V14.01,2013-08-29 01:08:00,
2013-08-28 20:13:00,90.1,69.0,29.56,West,270,0.0,0.0,50,0.00,,---,0.00,VWS V14.01,2013-08-29 01:13:00,
2013-08-28 20:18:00,90.1,69.0,29.56,West,270,0.0,0.0,50,0.00,,---,0.00,VWS V14.01,2013-08-29 01:18:00,
2013-08-28 20:23:00,90.1,69.0,29.56,West,270,0.0,0.0,50,0.00,,---,0.00,VWS V14.01,2013-08-29 01:23:00,
2013-08-28 20:28:00,90.1,69.0,29.56,West,270,0.0,0.0,50,0.00,,---,0.00,VWS V14.01,2013-08-29 01:28:00,
2013-08-28 20:33:00,90.1,69.0,29.56,West,270,0.0,0.0,50,0.00,,---,0.00,VWS V14.01,2013-08-29 01:33:00,
2013-08-28 20:38:00,90.1,69.0,29.56,West,270,0.0,0.0,50,0.00,,---,0.00,VWS V14.01,2013-08-29 01:38:00,
2013-08-28 20:43:00,90.1,69.0,29.59,West,270,0.0,0.0,50,0.00,,---,0.00,VWS V14.01,2013-08-29 01:43:00,
2013-08-28 20:48:00,90.1,69.0,29.59,West,270,0.0,0.0,50,0.00,,---,0.00,VWS V14.01,2013-08-29 01:48:00,
2013-08-28 20:53:00,90.1,69.0,29.59,West,270,0.0,0.0,50,0.00,,---,0.00,VWS V14.01,2013-08-29 01:53:00,
2013-08-28 20:58:00,78.8,67.4,29.59,West,270,0.0,0.0,68,0.00,,---,0.00,VWS V14.01,2013-08-29 01:58:00,
2013-08-28 21:03:00,78.6,67.6,29.59,West,270,0.0,0.0,69,0.00,,---,0.00,VWS V14.01,2013-08-29 02:03:00,
2013-08-28 21:08:00,78.4,67.4,29.59,West,270,0.0,0.0,69,0.00,,---,0.00,VWS V14.01,2013-08-29 02:08:00,
2013-08-28 21:13:00,78.4,67.4,29.56,West,270,0.0,0.0,69,0.00,,---,0.00,VWS V14.01,2013-08-29 02:13:00,
2013-08-28 21:18:00,78.3,67.7,29.56,West,270,0.0,0.0,70,0.00,,---,0.00,VWS V14.01,2013-08-29 02:18:00,
2013-08-28 21:23:00,78.1,67.5,29.56,West,270,0.0,0.0,70,0.00,,---,0.00,VWS V14.01,2013-08-29 02:23:00,
2013-08-28 21:28:00,77.9,67.8,29.59,West,270,0.0,0.0,71,0.00,,---,0.00,VWS V14.01,2013-08-29 02:28:00,
2013-08-28 21:33:00,77.7,68.0,29.59,West,270,0.0,0.0,72,0.00,,---,0.00,VWS V14.01,2013-08-29 02:33:00,
2013-08-28 21:38:00,77.5,67.8,29.59,West,270,0.0,0.0,72,0.00,,---,0.00,VWS V14.01,2013-08-29 02:38:00,
2013-08-28 21:43:00,77.5,68.2,29.59,West,270,0.0,0.0,73,0.00,,---,0.00,VWS V14.01,2013-08-29 02:43:00,
2013-08-28 21:47:00,77.4,68.0,29.59,West,270,0.0,0.0,73,0.00,,---,0.00,VWS V14.01,2013-08-29 02:47:00,
2013-08-28 21:52:00,77.2,68.3,29.59,West,270,0.0,0.0,74,0.00,,---,0.00,VWS V14.01,2013-08-29 02:52:00,
2013-08-28 21:57:00,77.0,68.1,29.59,West,270,0.0,0.0,74,0.00,,---,0.00,VWS V14.01,2013-08-29 02:57:00,
2013-08-28 22:02:00,76.8,68.3,29.59,West,270,0.0,0.0,75,0.00,,---,0.00,VWS V14.01,2013-08-29 03:02:00,
2013-08-28 22:07:00,76.6,68.5,29.59,West,270,0.0,0.0,76,0.00,,---,0.00,VWS V14.01,2013-08-29 03:07:00,
2013-08-28 22:12:00,76.6,68.5,29.59,West,270,0.0,0.0,76,0.00,,---,0.00,VWS V14.01,2013-08-29 03:12:00,
2013-08-28 22:17:00,76.5,68.7,29.59,West,270,0.0,0.0,77,0.00,,---,0.00,VWS V14.01,2013-08-29 03:17:00,
2013-08-28 22:22:00,76.3,68.6,29.59,West,270,0.0,0.0,77,0.00,,---,0.00,VWS V14.01,2013-08-29 03:22:00,
2013-08-28 22:27:00,76.3,68.9,29.59,West,270,0.0,0.0,78,0.00,,---,0.00,VWS V14.01,2013-08-29 03:27:00,
2013-08-28 22:32:00,76.1,68.8,29.59,West,270,0.0,0.0,78,0.00,,---,0.00,VWS V14.01,2013-08-29 03:32:00,
2013-08-28 22:37:00,76.1,69.1,29.59,West,270,0.0,0.0,79,0.00,,---,0.00,VWS V14.01,2013-08-29 03:37:00,
2013-08-28 22:42:00,76.1,69.1,29.59,West,270,0.0,0.0,79,0.00,,---,0.00,VWS V14.01,2013-08-29 03:42:00,
2013-08-28 22:47:00,76.1,69.1,29.59,West,270,0.0,0.0,79,0.00,,---,0.00,VWS V14.01,2013-08-29 03:47:00,
2013-08-28 22:52:00,75.9,69.3,29.59,West,270,0.0,0.0,80,0.00,,---,0.00,VWS V14.01,2013-08-29 03:52:00,
2013-08-28 22:57:00,75.9,69.3,29.56,West,270,0.0,0.0,80,0.00,,---,0.00,VWS V14.01,2013-08-29 03:57:00,
2013-08-28 23:01:00,75.7,69.1,29.56,West,270,0.0,0.0,80,0.00,,---,0.00,VWS V14.01,2013-08-29 04:01:00,
2013-08-28 23:06:00,75.7,69.1,29.56,West,270,0.0,0.0,80,0.00,,---,0.00,VWS V14.01,2013-08-29 04:06:00,
2013-08-28 23:11:00,75.7,69.1,29.56,West,270,0.0,0.0,80,0.00,,---,0.00,VWS V14.01,2013-08-29 04:11:00,
2013-08-28 23:16:00,75.6,69.0,29.56,West,270,0.0,0.0,80,0.00,,---,0.00,VWS V14.01,2013-08-29 04:16:00,
2013-08-28 23:21:00,75.6,69.3,29.56,West,270,0.0,0.0,81,0.00,,---,0.00,VWS V14.01,2013-08-29 04:21:00,
2013-08-28 23:26:00,75.4,69.2,29.56,West,270,0.0,0.0,81,0.00,,---,0.00,VWS V14.01,2013-08-29 04:26:00,
2013-08-28 23:31:00,75.4,69.2,29.56,West,270,0.0,0.0,81,0.00,,---,0.00,VWS V14.01,2013-08-29 04:31:00,
2013-08-28 23:36:00,75.4,69.2,29.56,West,270,0.0,0.0,81,0.00,,---,0.00,VWS V14.01,2013-08-29 04:36:00,
2013-08-28 23:41:00,75.2,69.0,29.56,West,270,0.0,0.0,81,0.00,,---,0.00,VWS V14.01,2013-08-29 04:41:00,
2013-08-28 23:46:00,75.2,69.3,29.56,West,270,0.0,0.0,82,0.00,,---,0.00,VWS V14.01,2013-08-29 04:46:00,
2013-08-28 23:51:00,75.0,69.2,29.56,West,270,0.0,0.0,82,0.00,,---,0.00,VWS V14.01,2013-08-29 04:51:00,
2013-08-28 23:56:00,75.0,69.2,29.56,West,270,0.0,0.0,82,0.00,,---,0.00,VWS V14.01,2013-08-29 04:56:00,